Погода в Федоровке

Украина / Запорожская область     47°33′04″N   36°32′54″E
темп.,
°C
ветер,
м/с
пор.,
м/с
влажн.,
%
обл.,
%
осадки,
мм/ч
давл.,
гПа
погр.,
м
22 апреля, чт
чт2200:00+7юз49925 0.6 1019189
03:00+7юз36925 0.6 1020109
06:00+6юз34915 0.0 102164
09:00+12юз34685 0.0 1022613
12:00+15юз445048 0.1 10221788
15:00+15ююз4450100 0.1 10211261
18:00+13ююз5864100 0.1 1021380
21:00+11ююз4772100 0.1 1023234
23 апреля, пт
пт2300:00+10юз487763 0.0 1022254
03:00+7юз36876 0.0 1022121
06:00+7ююз34875 0.0 102265
09:00+13ююз56619 0.0 1022705
12:00+16ююз6746100 0.0 10201970
15:00+16ююз8845100 0.0 10191617
18:00+14ююз685720 0.0 10181042
21:00+10ю61272100 0.0 1018441
24 апреля, сб
сб2400:00+10юз4880100 0.1 1017233
03:00+8ююз488931 0.1 1016191
06:00+8зсз4790100 0.4 1016551
09:00+9сз57664 1.3 1017968
12:00+12з710435 0.0 10182061
15:00+13з9123611 0.0 10182467
18:00+10з912545 0.0 10191670
21:00+6зсз49535 0.0 1021232
25 апреля, вс
вс2500:00+4з34636 0.0 102278
03:00+3зюз356159 0.0 102281
06:00+2з346772 0.0 102395
09:00+8зсз345034 0.0 1023981
12:00+11зсз3437100 0.0 10221912
15:00+12сз3334100 0.0 10211979
18:00+12зсз1136100 0.0 10201872
21:00+7ююз2353100 0.0 102036
26 апреля, пн
пн2600:00+5юз35662 0.0 102089
03:00+4зюз3566100 0.0 101976
06:00+4зюз34685 0.0 101878
09:00+10зюз455479 0.0 1018639
12:00+13зюз794487 0.0 10171762
15:00+8зсз576955 0.1 1018980
18:00+10з365111 0.0 10171342
21:00+6з49555 0.0 1018171